FW1901 Weather Reports


time (UTC)temp
C
wind
direction
speed
KPH
gust
KPH
rain 1hr
cm
rain 24hr
cm
rain mn
cm
humidity
%
barometer
mb
20260906073605 22 3 0.0 0.0 0.00 0.13 0.00 80 1013.3
20260906073105 22 3 0.0 0.0 0.00 0.13 0.00 83 1013.3
20260906071605 22 3 0.0 0.0 0.00 0.13 0.00 86 1013.3
20260906071105 22 3 0.0 0.0 0.00 0.13 0.00 85 1013.3
20260906070105 22 3 0.0 0.0 0.00 0.13 0.00 86 1013.3
20260906064605 22 3 0.0 0.0 0.00 0.13 0.00 86 1013.4
20260906064106 23 3 0.0 0.0 0.00 0.13 0.00 86 1013.3
20260906063105 23 3 0.0 0.0 0.00 0.13 0.00 85 1013.4
20260906061605 23 3 0.0 0.0 0.00 0.13 0.00 85 1013.4
20260906060605 23 3 0.0 0.0 0.00 0.13 0.00 85 1013.3
20260906060105 23 3 0.0 0.0 0.00 0.13 0.00 85 1013.2
20260906054605 23 3 0.0 0.0 0.00 0.13 0.00 84 1013.1
20260906054105 23 3 0.0 0.0 0.00 0.13 0.00 84 1013.0
20260906051605 23 3 0.0 0.0 0.00 0.13 0.00 85 1013.0
20260906051105 23 3 0.0 0.0 0.00 0.13 0.00 85 1013.1
20260906050604 23 3 0.0 0.0 0.00 0.13 0.00 85 1013.1
20260906044604 23 3 0.0 0.0 0.00 0.13 0.00 85 1012.8
20260906044105 23 3 0.0 0.0 0.00 0.13 0.00 85 1012.7
20260906043605 23 3 0.0 0.0 0.00 0.13 0.00 85 1012.8
20260906043105 24 3 0.0 0.0 0.00 0.13 0.00 84 1012.7
20260906041605 24 3 0.0 0.0 0.00 0.13 0.00 83 1012.7
20260906041105 24 3 0.0 0.0 0.00 0.13 0.00 83 1012.7
20260906040605 24 3 0.0 0.0 0.00 0.13 0.00 83 1012.7
20260906040105 24 3 0.0 0.0 0.00 0.13 0.00 83 1012.7
20260906034605 25 3 0.0 0.0 0.00 0.13 0.13 84 1012.7
20260906034105 25 3 0.0 0.0 0.00 0.13 0.13 84 1012.6
20260906033105 25 3 0.0 0.0 0.00 0.13 0.13 84 1012.5
20260906031605 25 3 0.0 0.0 0.00 0.13 0.13 84 1012.4
20260906031105 25 3 0.0 0.0 0.00 0.13 0.13 84 1012.5
20260906024605 25 3 0.0 0.0 0.00 0.13 0.13 82 1012.3
20260906024104 25 3 0.0 0.0 0.00 0.13 0.13 82 1012.2
20260906023605 25 3 0.0 0.0 0.00 0.13 0.13 81 1012.1
20260906021605 25 3 0.0 0.0 0.00 0.13 0.13 82 1011.9
20260906021105 25 3 0.0 0.0 0.00 0.13 0.13 82 1011.8
20260906020105 25 3 0.0 0.0 0.00 0.13 0.13 83 1011.9
20260906014605 25 3 0.0 0.0 0.00 0.13 0.13 82 1011.7
20260906013605 25 3 0.0 0.0 0.00 0.13 0.13 82 1011.6
20260906013104 25 3 0.0 0.0 0.00 0.13 0.13 82 1011.5
20260906011604 25 3 0.0 0.0 0.00 0.13 0.13 82 1011.3
20260906011105 25 3 0.0 0.0 0.00 0.13 0.13 82 1011.4
20260906010605 25 3 0.0 0.0 0.00 0.13 0.13 82 1011.3
20260906010105 25 3 0.0 0.0 0.00 0.13 0.13 82 1011.3
20260906004604 25 3 0.0 0.0 0.00 0.13 0.13 82 1010.9
20260906003605 26 3 0.0 0.0 0.00 0.13 0.13 82 1010.7
20260906003105 26 3 0.0 0.0 0.00 0.13 0.13 82 1010.8
20260906001605 26 3 0.0 0.0 0.00 0.13 0.13 82 1010.7
20260906001105 26 6 0.0 0.0 0.00 0.13 0.13 82 1010.7
20260906000605 26 6 0.0 0.0 0.00 0.13 0.13 82 1010.6
20260906000105 26 5 0.0 0.0 0.00 0.13 0.13 82 1010.6
20260905234104 26 4 0.0 3.2 0.00 0.13 0.13 82 1010.8
20260905233605 26 4 1.6 3.2 0.00 0.13 0.13 82 1010.8
20260905233105 26 4 0.0 1.6 0.00 0.13 0.13 82 1010.7
20260905231105 27 4 0.0 3.2 0.00 0.13 0.13 81 1010.6
20260905230604 27 4 0.0 3.2 0.00 0.13 0.13 81 1010.5
20260905230105 27 4 0.0 4.8 0.00 0.13 0.13 81 1010.4
20260905224605 27 2 0.0 4.8 0.00 0.13 0.13 81 1010.4
20260905224104 27 2 1.6 4.8 0.03 0.13 0.13 81 1010.4
20260905223604 27 326 1.6 4.8 0.03 0.13 0.13 81 1010.4
20260905223104 26 326 1.6 4.8 0.08 0.13 0.13 81 1010.4
20260905221605 26 325 0.0 11.3 0.13 0.13 0.13 82 1010.7
20260905221105 26 301 0.0 11.3 0.13 0.13 0.13 82 1010.6
20260905220604 26 285 6.4 11.3 0.13 0.13 0.13 82 1010.7
20260905220104 26 292 3.2 8.0 0.13 0.13 0.13 82 1010.5
20260905214604 27 268 1.6 14.5 0.13 0.13 0.13 79 1010.4
20260905214105 28 287 6.4 14.5 0.10 0.10 0.10 76 1010.7
20260905213604 30 29 1.6 22.5 0.10 0.10 0.10 75 1010.8
20260905213105 31 357 8.0 22.5 0.05 0.05 0.05 73 1011.1
20260905211104 32 326 1.6 4.8 0.00 0.00 0.00 62 1010.3
20260905210605 32 356 1.6 4.8 0.00 0.00 0.00 62 1010.3
20260905204604 33 291 4.8 16.1 0.00 0.00 0.00 56 1010.4
20260905204104 34 292 8.0 16.1 0.00 0.00 0.00 55 1010.6
20260905203104 35 288 4.8 12.9 0.00 0.00 0.00 54 1010.6
20260905201604 33 358 1.6 11.3 0.00 0.00 0.00 59 1010.9
20260905200605 33 286 4.8 14.5 0.00 0.00 0.00 57 1010.9
20260905200104 33 285 8.0 14.5 0.00 0.00 0.00 56 1010.8
20260905194604 32 295 3.2 12.9 0.00 0.00 0.00 59 1010.9
20260905194104 32 25 4.8 14.5 0.00 0.00 0.00 58 1011.0
20260905193604 33 283 4.8 14.5 0.00 0.00 0.00 58 1011.2
20260905193104 33 339 4.8 11.3 0.00 0.00 0.00 57 1011.2
20260905191105 33 271 6.4 12.9 0.00 0.00 0.00 57 1011.3
20260905190604 33 203 4.8 11.3 0.00 0.00 0.00 58 1011.4
20260905190104 33 235 4.8 11.3 0.00 0.00 0.00 57 1011.5
20260905184605 32 262 1.6 4.8 0.00 0.00 0.00 58 1011.7
20260905184104 32 276 1.6 4.8 0.00 0.00 0.00 57 1011.9
20260905183605 32 270 3.2 4.8 0.00 0.00 0.00 57 1012.0
20260905183104 32 299 1.6 11.3 0.00 0.00 0.00 59 1012.0
20260905181604 32 212 3.2 9.7 0.00 0.00 0.00 60 1012.1
20260905181105 32 275 3.2 9.7 0.00 0.00 0.00 58 1012.2
20260905180604 32 212 3.2 11.3 0.00 0.00 0.00 58 1012.2
20260905180105 31 298 3.2 12.9 0.00 0.00 0.00 59 1012.3
20260905174605 31 299 4.8 14.5 0.00 0.00 0.00 58 1012.4
20260905174105 31 267 4.8 11.3 0.00 0.00 0.00 59 1012.5
20260905173604 31 225 3.2 9.7 0.00 0.00 0.00 59 1012.5
20260905173104 31 259 1.6 9.7 0.00 0.00 0.00 59 1012.5
20260905171604 31 3 0.0 0.0 0.00 0.00 0.00 56 1012.7
20260905171104 31 3 0.0 0.0 0.00 0.00 0.00 57 1012.8
20260905170604 31 3 0.0 0.0 0.00 0.00 0.00 57 1012.9
20260905164604 31 3 0.0 0.0 0.00 0.00 0.00 57 1013.0
20260905164104 31 3 0.0 0.0 0.00 0.00 0.00 57 1013.0
20260905163604 31 3 0.0 0.0 0.00 0.00 0.00 58 1013.1
20260905163105 30 3 0.0 0.0 0.00 0.00 0.00 58 1013.2
20260905161604 30 3 0.0 0.0 0.00 0.00 0.00 59 1013.2
20260905161104 30 3 0.0 0.0 0.00 0.00 0.00 59 1013.2
20260905160604 30 3 0.0 0.0 0.00 0.00 0.00 58 1013.1
20260905154604 29 3 0.0 0.0 0.00 0.00 0.00 62 1013.1
20260905154104 29 3 0.0 0.0 0.00 0.00 0.00 61 1013.0
20260905151604 28 3 0.0 0.0 0.00 0.00 0.00 63 1013.5
20260905151104 28 3 0.0 0.0 0.00 0.00 0.00 64 1013.4
20260905150604 27 3 0.0 0.0 0.00 0.00 0.00 65 1013.4
20260905150104 27 3 0.0 0.0 0.00 0.00 0.00 65 1013.5
20260905144604 27 3 0.0 0.0 0.00 0.00 0.00 65 1013.4
20260905143604 26 3 0.0 0.0 0.00 0.00 0.00 68 1013.5
20260905143104 26 3 0.0 0.0 0.00 0.00 0.00 69 1013.5
20260905141604 25 3 0.0 0.0 0.00 0.00 0.00 70 1013.5
20260905141103 25 3 0.0 0.0 0.00 0.00 0.00 71 1013.6
20260905140604 25 3 0.0 0.0 0.00 0.00 0.00 72 1013.7
20260905134103 24 3 0.0 0.0 0.00 0.00 0.00 74 1013.6
20260905133604 23 3 0.0 0.0 0.00 0.00 0.00 74 1013.7
20260905133105 23 3 0.0 0.0 0.00 0.00 0.00 74 1013.6
20260905131603 23 3 0.0 0.0 0.00 0.00 0.00 76 1013.7
20260905131103 23 3 0.0 0.0 0.00 0.00 0.00 77 1013.7
20260905130104 23 3 0.0 0.0 0.00 0.00 0.00 76 1013.7
20260905124604 23 3 0.0 0.0 0.00 0.00 0.00 77 1013.8
20260905124104 23 3 0.0 0.0 0.00 0.00 0.00 77 1013.8
20260905123604 23 3 0.0 0.0 0.00 0.00 0.00 77 1013.8
20260905123104 23 3 0.0 0.0 0.00 0.00 0.00 78 1013.8
20260905121604 23 3 0.0 0.0 0.00 0.00 0.00 78 1013.8
20260905121103 23 3 0.0 0.0 0.00 0.00 0.00 78 1013.7
20260905120604 23 3 0.0 0.0 0.00 0.00 0.00 78 1013.6
20260905120104 23 3 0.0 0.0 0.00 0.00 0.00 78 1013.5
20260905114604 23 2 0.0 0.0 0.00 0.00 0.00 80 1013.4
20260905113603 24 3 0.0 0.0 0.00 0.00 0.00 83 1013.2
20260905113104 23 3 0.0 0.0 0.00 0.00 0.00 82 1013.0
20260905111104 23 3 0.0 0.0 0.00 0.00 0.00 82 1012.2
20260905110603 23 3 0.0 0.0 0.00 0.00 0.00 82 1012.2
20260905110104 23 3 0.0 0.0 0.00 0.00 0.00 82 1012.1
20260905104603 23 3 0.0 0.0 0.00 0.00 0.00 82 1012.0
20260905104104 23 3 0.0 0.0 0.00 0.00 0.00 83 1012.0
20260905103603 24 3 0.0 0.0 0.00 0.00 0.00 83 1012.0
20260905103104 24 3 0.0 0.0 0.00 0.00 0.00 83 1012.1
20260905101606 24 3 0.0 0.0 0.00 0.00 0.00 83 1011.9
20260905101106 24 3 0.0 0.0 0.00 0.00 0.00 83 1011.9
20260905100605 24 3 0.0 0.0 0.00 0.00 0.00 83 1011.9
20260905100105 24 3 0.0 0.0 0.00 0.00 0.00 83 1011.8
20260905093605 24 3 0.0 0.0 0.00 0.00 0.00 83 1012.0
20260905093105 24 3 0.0 0.0 0.00 0.00 0.00 82 1012.0
20260905091605 24 3 0.0 0.0 0.00 0.00 0.00 82 1012.0
20260905091105 24 3 0.0 0.0 0.00 0.00 0.00 83 1012.0
20260905090605 24 3 0.0 0.0 0.00 0.00 0.00 83 1012.0
20260905090106 24 3 0.0 0.0 0.00 0.00 0.00 82 1012.0
20260905084105 24 3 0.0 0.0 0.00 0.00 0.00 83 1011.8
20260905083606 24 3 0.0 0.0 0.00 0.00 0.00 83 1011.8
20260905083105 24 3 0.0 0.0 0.00 0.00 0.00 83 1011.8
20260905081605 24 3 0.0 0.0 0.00 0.00 0.00 83 1011.5
20260905081106 24 2 0.0 0.0 0.00 0.00 0.00 83 1011.5
20260905080605 24 297 0.0 1.6 0.00 0.00 0.00 83 1011.4
20260905080105 24 297 0.0 1.6 0.00 0.00 0.00 83 1011.5
20260905074605 25 297 0.0 1.6 0.00 0.00 0.00 82 1011.4
20260905074106 24 297 0.0 3.2 0.00 0.00 0.00 82 1011.3